This demonstration page uses our WeatherBlox Daily Observations layout. Learn more.

Left ArrowRight Arrow

Hourly Observations for February 13, 2019

Temp ( °F °C ) Dew Point ( °F °C ) Humidity (%) Winds ( mph kmh ) Pressure ( in mb ) Visibility ( mi km ) Precip ( " mm )
12:53 am 00:53 Clear 44 6.7 30 -1.1 58 58 NW 9 15 30.07 1018 10 16 0.00 0.00
1:53 am 01:53 Clear 43 6.1 31 -0.6 63 63 WNW 10 17 30.11 1020 10 16 0.00 0.00
2:53 am 02:53 Clear 42 5.6 29 -1.7 60 60 WNW 5 7 30.11 1020 10 16 0.00 0.00
3:53 am 03:53 Clear 40 4.4 29 -1.7 65 65 WNW 5 7 30.12 1020 10 16 0.00 0.00
4:53 am 04:53 Clear 39 3.9 27 -2.8 62 62 WNW 3 6 30.14 1021 10 16 0.00 0.00
5:53 am 05:53 Clear 38 3.3 27 -2.8 65 65 WNW 6 9 30.15 1021 10 16 0.00 0.00
6:53 am 06:53 Clear 37 2.8 28 -2.2 70 70 W 5 7 30.16 1022 10 16 0.00 0.00
7:53 am 07:53 Sunny 37 2.8 29 -1.7 73 73 W 5 7 30.19 1022 10 16 0.00 0.00
8:53 am 08:53 Sunny 39 3.9 29 -1.7 67 67 WNW 9 15 30.21 1023 10 16 0.00 0.00
9:53 am 09:53 Sunny 41 5 28 -2.2 60 60 NNW 9 15 30.23 1024 10 16 0.00 0.00
10:53 am 10:53 Sunny 45 7.2 25 -3.9 46 46 NW 14 22 30.24 1024 10 16 0.00 0.00
11:53 am 11:53 Sunny 49 9.4 26 -3.3 41 41 NW 12 19 30.23 1024 10 16 0.00 0.00
12:53 pm 12:53 Sunny 50 10 22 -5.6 33 33 NW 14 22 30.20 1023 10 16 0.00 0.00
1:53 pm 13:53 Sunny 53 11.7 22 -5.6 30 30 WNW 14 22 30.15 1021 10 16 0.00 0.00
2:53 pm 14:53 Sunny 54 12.2 22 -5.6 29 29 NW 12 19 30.14 1021 10 16 0.00 0.00
3:53 pm 15:53 Sunny 55 12.8 23 -5 29 29 NNW 7 11 30.14 1021 10 16 0.00 0.00
4:53 pm 16:53 Sunny 55 12.8 22 -5.6 28 28 NW 10 17 30.14 1021 10 16 0.00 0.00
5:53 pm 17:53 Sunny 53 11.7 23 -5 31 31 NW 9 15 30.16 1021 10 16 0.00 0.00
6:53 pm 18:53 Clear 49 9.4 25 -3.9 39 39 Calm 30.16 1021 10 16 0.00 0.00
7:53 pm 19:53 Clear 45 7.2 28 -2.2 52 52 Calm 30.17 1022 10 16 0.00 0.00
8:53 pm 20:53 Clear 44 6.7 29 -1.7 55 55 SSW 3 6 30.19 1022 10 16 0.00 0.00
9:53 pm 21:53 Clear 40 4.4 32 0 73 73 Calm 30.20 1023 10 16 0.00 0.00
10:53 pm 22:53 Clear 38 3.3 33 0.6 83 83 Calm 30.19 1022 10 16 0.00 0.00
11:53 pm 23:53 Clear 37 2.8 33 0.6 86 86 Calm 30.18 1022 10 16 0.00 0.00

Powered by AerisWeather